1486612800.07,48275,10.25,73632.3,-9.07,-10.57,-10.57,0,*52
1486612801.33,48276,10.31,73634.0,-9.07,-10.57,-10.63,0,*56
1486612802.6,48277,10.31,73634.3,-9.07,-10.57,-10.71,0,*54
1486612803.86,48278,10.31,73636.3,-9.07,-10.49,-10.63,0,*57
1486612805.12,48279,10.31,73634.0,-9.07,-10.57,-10.71,0,*5A
1486612806.38,48280,10.31,73636.0,-9.07,-10.57,-10.63,0,*5F
1486612807.64,48281,10.31,73636.8,-9.07,-10.63,-10.57,0,*5E
1486612808.88,48282,10.31,73640.0,-9.07,-10.57,-10.57,0,*5A
1486612810.12,48283,10.31,73634.0,-9.07,-10.57,-10.57,0,*5B
1486612811.36,48284,10.31,73632.3,-9.05,-10.57,-10.67,0,*5D
1486612812.61,48285,10.31,73634.5,-9.05,-10.57,-10.67,0,*5C
1486612813.86,48286,10.31,73638.8,-9.05,-10.57,-10.67,0,*5F
1486612815.07,48287,10.31,73636.0,-9.05,-10.57,-10.57,0,*5D
1486612816.29,48288,10.31,73634.5,-9.05,-10.45,-10.57,0,*51
1486612817.53,48289,10.25,73630.8,-9.05,-10.53,-10.67,0,*54
1486612818.74,48290,10.31,73636.0,-9.05,-10.53,-10.57,0,*5F
1486612819.95,48291,10.31,73636.0,-9.05,-10.53,-10.57,0,*5E
1486612821.19,48292,10.31,73632.0,-9.05,-10.45,-10.67,0,*59
1486612822.45,48293,10.31,73632.8,-9.03,-10.53,-10.67,0,*59
1486612823.67,48294,10.31,73634.3,-9.05,-10.45,-10.57,0,*5C
1486612824.88,48295,10.31,73632.8,-9.05,-10.45,-10.57,0,*5D
1486612826.1,48296,10.31,73634.3,-9.05,-10.57,-10.57,0,*5D
1486612827.34,48297,10.31,73632.5,-9.05,-10.45,-10.67,0,*5C
1486612828.58,48298,10.31,73632.3,-9.05,-10.45,-10.67,0,*53
1486612829.79,48299,10.31,73632.5,-9.05,-10.53,-10.57,0,*56
1486612831.0,48300,10.31,73632.5,-9.05,-10.53,-10.57,0,*57
1486612832.22,48301,10.31,73632.3,-9.05,-10.45,-10.57,0,*51
1486612833.43,48302,10.31,73634.5,-9.05,-10.53,-10.53,0,*51
1486612834.64,48303,10.31,73634.3,-9.05,-10.53,-10.57,0,*54
1486612835.87,48304,10.31,73634.3,-9.07,-10.57,-10.57,0,*55
1486612837.14,48305,10.31,73634.0,-9.07,-10.57,-10.63,0,*53
1486612838.38,48306,10.31,73634.3,-9.05,-10.53,-10.67,0,*52
1486612839.62,48307,10.31,73634.3,-9.05,-10.57,-10.67,0,*57
1486612840.84,48308,10.31,73636.8,-9.05,-10.57,-10.57,0,*5B
1486612842.11,48309,10.31,73632.5,-9.03,-10.45,-10.67,0,*5C
1486612843.35,48310,10.31,73634.3,-9.05,-10.53,-10.67,0,*55
1486612844.56,48311,10.31,73634.0,-9.05,-10.53,-10.57,0,*57
1486612845.77,48312,10.31,73634.8,-9.05,-10.45,-10.57,0,*53
1486612847.03,48313,10.25,73630.5,-9.03,-10.53,-10.67,0,*50
1486612848.25,48314,10.31,73634.8,-9.05,-10.53,-10.57,0,*52
1486612849.46,48315,10.31,73632.3,-9.05,-10.45,-10.57,0,*54
1486612850.72,48316,10.31,73634.8,-9.07,-10.49,-10.71,0,*5D
1486612851.92,48317,10.31,73632.0,-9.05,-10.53,-10.53,0,*55
1486612853.16,48318,10.25,73632.3,-9.03,-10.45,-10.53,0,*5B
1486612854.4,48319,10.31,73634.8,-9.05,-10.53,-10.67,0,*5C
1486612855.61,48320,10.31,73634.3,-9.05,-10.53,-10.57,0,*55
1486612856.85,48321,10.31,73634.5,-9.05,-10.53,-10.67,0,*57
1486612858.06,48322,10.31,73632.0,-9.05,-10.53,-10.57,0,*57
1486612859.27,48323,10.31,73632.0,-9.05,-10.53,-10.57,0,*56
1486612860.49,48324,10.31,73632.3,-9.05,-10.45,-10.57,0,*56
1486612861.73,48325,10.31,73634.5,-9.05,-10.53,-10.67,0,*53
1486612862.97,48326,10.31,73636.3,-9.05,-10.53,-10.67,0,*50
1486612864.18,48327,10.31,73632.3,-9.05,-10.57,-10.57,0,*56
1486612865.39,48328,10.31,73630.8,-9.05,-10.53,-10.57,0,*5D
1486612866.64,48329,10.31,73630.0,-9.05,-10.57,-10.67,0,*5B
1486612867.89,48330,10.31,73632.5,-9.05,-10.57,-10.67,0,*53
1486612869.13,48331,10.25,73628.5,-9.05,-10.53,-10.67,0,*56
1486612870.34,48332,10.31,73634.5,-9.05,-10.53,-10.57,0,*56
1486612871.58,48333,10.31,73634.3,-9.05,-10.57,-10.67,0,*50
1486612872.8,48334,10.25,73630.5,-9.05,-10.57,-10.57,0,*54
1486612874.04,48335,10.31,73634.3,-9.05,-10.57,-10.67,0,*56
1486612875.26,48336,10.31,73632.3,-9.05,-10.57,-10.57,0,*56
1486612876.48,48337,10.31,73628.3,-9.05,-10.57,-10.57,0,*57
1486612877.74,48338,10.31,73628.3,-9.07,-10.57,-10.63,0,*5D
1486612878.95,48339,10.31,73628.8,-9.05,-10.45,-10.57,0,*5A
1486612880.22,48340,10.31,73632.8,-9.03,-10.57,-10.67,0,*52
1486612881.51,48341,10.31,73630.0,-9.07,-10.63,-10.71,0,*57
1486612882.8,48342,10.31,73634.8,-9.07,-10.63,-10.71,0,*54
1486612884.09,48343,10.31,73632.3,-9.07,-10.63,-10.71,0,*55
1486612885.38,48344,10.31,73634.8,-9.07,-10.71,-10.63,0,*52
1486612886.64,48345,10.31,73634.8,-9.07,-10.57,-10.63,0,*57
1486612887.9,48346,10.31,73632.3,-9.07,-10.49,-10.63,0,*5B
1486612889.11,48347,10.31,73632.0,-9.05,-10.53,-10.57,0,*54
1486612890.32,48348,10.31,73634.0,-9.05,-10.53,-10.57,0,*5B
1486612891.53,48349,10.31,73634.8,-9.05,-10.53,-10.57,0,*5A
1486612892.78,48350,10.31,73636.0,-9.05,-10.45,-10.67,0,*56
1486612893.99,48351,10.31,73632.5,-9.05,-10.53,-10.57,0,*53
1486612895.2,48352,10.31,73634.0,-9.05,-10.53,-10.53,0,*54
1486612896.44,48353,10.31,73634.0,-9.05,-10.53,-10.67,0,*52
1486612897.68,48354,10.31,73632.3,-9.05,-10.53,-10.67,0,*55
1486612898.92,48355,10.31,73634.0,-9.05,-10.57,-10.67,0,*50
1486612900.14,48356,10.31,73634.0,-9.05,-10.45,-10.57,0,*53
1486612901.35,48357,10.31,73638.3,-9.05,-10.53,-10.57,0,*55
1486612902.56,48358,10.31,73634.5,-9.05,-10.45,-10.57,0,*5D
1486612903.77,48359,10.31,73636.5,-9.05,-10.53,-10.45,0,*58
1486612904.98,48360,10.31,73638.3,-9.05,-10.45,-10.53,0,*52
1486612906.19,48361,10.31,73638.0,-9.05,-10.45,-10.53,0,*53
1486612907.41,48362,10.31,73636.5,-9.05,-10.45,-10.53,0,*50
1486612908.62,48363,10.31,73640.0,-9.05,-10.53,-10.53,0,*56
1486612909.86,48364,10.31,73638.5,-9.05,-10.53,-10.67,0,*56
1486612911.07,48365,10.31,73636.5,-9.05,-10.53,-10.57,0,*54
1486612912.31,48366,10.31,73638.8,-9.03,-10.57,-10.57,0,*55
1486612913.6,48367,10.31,73636.3,-9.07,-10.63,-10.63,0,*50
1486612914.81,48368,10.31,73636.3,-9.05,-10.53,-10.53,0,*5D
1486612916.02,48369,10.31,73636.3,-9.05,-10.53,-10.57,0,*58
1486612917.26,48370,10.31,73634.3,-9.05,-10.53,-10.67,0,*53
1486612918.54,48371,10.31,73634.3,-9.05,-10.67,-10.67,0,*55
1486612919.78,48372,10.31,73634.0,-9.05,-10.57,-10.67,0,*55
1486612921.06,48373,10.31,73636.5,-9.05,-10.67,-10.67,0,*57
1486612922.31,48374,10.31,73638.0,-9.05,-10.57,-10.67,0,*53
1486612923.55,48375,10.31,73638.5,-9.05,-10.67,-10.57,0,*52
1486612924.84,48376,10.31,73634.0,-9.07,-10.71,-10.71,0,*50
1486612926.12,48377,10.31,73638.0,-9.05,-10.67,-10.67,0,*53
1486612927.41,48378,10.31,73638.3,-9.07,-10.71,-10.75,0,*5A
1486612928.7,48379,10.31,73636.0,-9.07,-10.71,-10.75,0,*5B
1486612929.99,48380,10.31,73636.5,-9.07,-10.71,-10.75,0,*5D
1486612931.27,48381,10.31,73640.8,-9.05,-10.67,-10.67,0,*5A
1486612932.54,48382,10.31,73636.5,-9.05,-10.67,-10.71,0,*5E
1486612933.83,48383,10.31,73642.0,-9.07,-10.71,-10.75,0,*5E
1486612935.1,48384,10.31,73636.8,-9.09,-10.71,-10.75,0,*57
1486612936.39,48385,10.31,73638.8,-9.07,-10.71,-10.75,0,*58
1486612937.66,48386,10.31,73640.5,-9.05,-10.67,-10.71,0,*5A
1486612938.95,48387,10.25,73632.5,-9.07,-10.71,-10.75,0,*5A
1486612940.24,48388,10.31,73636.5,-9.07,-10.71,-10.75,0,*55
1486612941.53,48389,10.31,73632.5,-9.07,-10.71,-10.75,0,*54
1486612942.8,48390,10.31,73636.5,-9.07,-10.57,-10.63,0,*5F
1486612944.09,48391,10.31,73638.8,-9.07,-10.63,-10.63,0,*59
1486612945.37,48392,10.31,73636.5,-9.07,-10.71,-10.71,0,*5A
1486612946.66,48393,10.31,73634.3,-9.07,-10.63,-10.71,0,*58
1486612947.95,48394,10.31,73640.0,-9.07,-10.63,-10.75,0,*5B
1486612949.24,48395,10.31,73638.5,-9.07,-10.71,-10.63,0,*5E
1486612950.53,48396,10.31,73640.3,-9.07,-10.63,-10.71,0,*5D
1486612951.8,48397,10.31,73638.8,-9.09,-10.71,-10.71,0,*51
1486612953.08,48398,10.31,73640.3,-9.09,-10.63,-10.63,0,*5E
1486612954.37,48399,10.31,73634.8,-9.07,-10.63,-10.71,0,*52
1486612955.66,48400,10.31,73636.8,-9.07,-10.63,-10.63,0,*56
1486612956.95,48401,10.31,73638.8,-9.07,-10.63,-10.63,0,*57
1486612958.21,48402,10.31,73634.8,-9.07,-10.57,-10.63,0,*53
1486612959.45,48403,10.31,73636.5,-9.07,-10.57,-10.57,0,*55
1486612960.68,48404,10.31,73638.5,-9.07,-10.57,-10.57,0,*52
1486612961.98,48405,10.31,73636.0,-9.07,-10.63,-10.63,0,*53
1486612963.27,48406,10.31,73636.0,-9.07,-10.63,-10.63,0,*50
1486612964.56,48407,10.31,73634.0,-9.07,-10.63,-10.71,0,*52
1486612965.84,48408,10.31,73636.0,-9.07,-10.71,-10.71,0,*5E
1486612967.11,48409,10.31,73638.8,-9.07,-10.57,-10.63,0,*58
1486612968.34,48410,10.31,73636.5,-9.07,-10.49,-10.57,0,*58
1486612969.6,48411,10.31,73636.8,-9.07,-10.57,-10.63,0,*51
1486612970.87,48412,10.31,73640.5,-9.07,-10.57,-10.63,0,*52
1486612972.11,48413,10.31,73636.8,-9.09,-10.57,-10.63,0,*5D
1486612973.32,48414,10.31,73638.8,-9.05,-10.53,-10.53,0,*51
1486612974.53,48415,10.31,73636.3,-9.05,-10.53,-10.53,0,*50
1486612975.8,48416,10.31,73638.3,-9.03,-10.53,-10.67,0,*52
1486612977.01,48417,10.31,73638.5,-9.05,-10.57,-10.57,0,*52
1486612978.25,48418,10.31,73640.3,-9.05,-10.53,-10.67,0,*5A
1486612979.52,48419,10.31,73638.8,-9.07,-10.57,-10.63,0,*59
1486612980.78,48420,10.31,73638.3,-9.07,-10.57,-10.63,0,*53
1486612981.99,48421,10.31,73636.5,-9.05,-10.53,-10.57,0,*53
1486612983.2,48422,10.31,73636.3,-9.05,-10.53,-10.57,0,*50
1486612984.45,48423,10.31,73636.0,-9.05,-10.57,-10.67,0,*56
1486612985.72,48424,10.31,73634.5,-9.05,-10.67,-10.67,0,*52
1486612987.0,48425,10.31,73636.0,-9.05,-10.67,-10.67,0,*53
1486612988.28,48426,10.31,73634.3,-9.05,-10.67,-10.67,0,*50
1486612989.55,48427,10.31,73636.8,-9.05,-10.67,-10.67,0,*51
1486612990.8,48428,10.31,73636.3,-9.05,-10.57,-10.67,0,*5D
1486612992.05,48429,10.31,73638.5,-9.05,-10.57,-10.67,0,*5C
1486612993.32,48430,10.31,73638.0,-9.03,-10.57,-10.67,0,*52
1486612994.59,48431,10.31,73642.3,-9.03,-10.57,-10.67,0,*53
1486612995.83,48432,10.31,73638.0,-9.05,-10.57,-10.67,0,*56
1486612997.08,48433,10.31,73640.8,-9.05,-10.57,-10.67,0,*57
1486612998.35,48434,10.31,73638.3,-9.07,-10.57,-10.67,0,*52
1486612999.59,48435,10.31,73640.0,-9.05,-10.57,-10.67,0,*51
1486613000.88,48436,10.31,73642.0,-9.07,-10.63,-10.71,0,*50
1486613002.14,48437,10.31,73642.5,-9.07,-10.57,-10.71,0,*56
1486613003.35,48438,10.31,73646.3,-9.05,-10.53,-10.57,0,*5B
1486613004.61,48439,10.31,73638.3,-9.07,-10.49,-10.63,0,*54
1486613005.87,48440,10.31,73638.0,-9.07,-10.49,-10.71,0,*59
1486613007.08,48441,10.31,73638.8,-9.05,-10.53,-10.57,0,*55
1486613008.29,48442,10.31,73638.3,-9.05,-10.57,-10.57,0,*52
1486613009.53,48443,10.31,73638.5,-9.03,-10.53,-10.57,0,*51
1486613010.74,48444,10.31,73638.8,-9.05,-10.53,-10.57,0,*50
1486613011.98,48445,10.31,73636.3,-9.05,-10.53,-10.67,0,*52
1486613013.22,48446,10.31,73636.3,-9.05,-10.53,-10.67,0,*51
1486613014.43,48447,10.31,73636.8,-9.05,-10.53,-10.57,0,*53
1486613015.69,48448,10.31,73634.5,-9.03,-10.53,-10.67,0,*59
1486613016.93,48449,10.31,73640.8,-9.05,-10.53,-10.67,0,*5E
1486613018.17,48450,10.31,73640.8,-9.05,-10.53,-10.67,0,*56
1486613019.45,48451,10.31,73638.0,-9.05,-10.67,-10.67,0,*50
1486613020.72,48452,10.31,73640.0,-9.05,-10.67,-10.71,0,*54
1486613022.02,48453,10.31,73640.0,-9.03,-10.67,-10.71,0,*53
1486613023.25,48454,10.31,73640.3,-9.05,-10.57,-10.71,0,*51
1486613024.49,48455,10.31,73640.0,-9.05,-10.57,-10.71,0,*50
1486613025.73,48456,10.31,73640.3,-9.05,-10.57,-10.71,0,*53
1486613027.04,48457,10.31,73646.0,-9.03,-10.67,-10.67,0,*50
1486613028.25,48458,10.31,73642.3,-9.05,-10.57,-10.57,0,*59
1486613029.5,48459,10.25,73640.5,-9.05,-10.57,-10.67,0,*5B
1486613030.8,48460,10.31,73640.5,-9.03,-10.67,-10.67,0,*54
1486613032.04,48461,10.31,73642.8,-9.05,-10.57,-10.67,0,*50
1486613033.28,48462,10.31,73640.5,-9.05,-10.57,-10.71,0,*54
1486613034.56,48463,10.31,73642.8,-9.05,-10.67,-10.79,0,*5E
1486613035.83,48464,10.31,73640.0,-9.05,-10.67,-10.71,0,*51
1486613037.07,48465,10.31,73642.8,-9.05,-10.57,-10.71,0,*53
1486613038.34,48466,10.31,73644.0,-9.05,-10.67,-10.71,0,*53
1486613039.61,48467,10.31,73646.8,-9.05,-10.67,-10.71,0,*52
1486613040.85,48468,10.31,73638.3,-9.05,-10.57,-10.71,0,*5E
1486613042.09,48469,10.31,73638.8,-9.05,-10.57,-10.71,0,*5F
1486613043.36,48470,10.31,73640.8,-9.05,-10.67,-10.71,0,*54
1486613044.6,48471,10.31,73640.0,-9.05,-10.57,-10.71,0,*56
1486613045.87,48472,10.31,73640.3,-9.05,-10.67,-10.71,0,*56
1486613047.11,48473,10.31,73638.0,-9.05,-10.57,-10.71,0,*54
1486613048.35,48474,10.31,73640.8,-9.05,-10.57,-10.67,0,*54
1486613049.6,48475,10.31,73640.8,-9.05,-10.57,-10.67,0,*55
1486613050.85,48476,10.31,73642.3,-9.05,-10.57,-10.67,0,*56
1486613052.12,48477,10.31,73642.5,-9.05,-10.67,-10.67,0,*54
1486613053.4,48478,10.31,73638.5,-9.05,-10.67,-10.71,0,*5C
1486613054.67,48479,10.25,73634.8,-9.05,-10.67,-10.71,0,*5D
1486613055.94,48480,10.25,73636.5,-9.05,-10.67,-10.71,0,*5B
1486613057.18,48481,10.31,73642.0,-9.05,-10.57,-10.67,0,*5E
1486613058.43,48482,10.31,73642.3,-9.05,-10.57,-10.67,0,*5D
1486613059.71,48483,10.31,73640.5,-9.05,-10.67,-10.67,0,*5F
1486613060.92,48484,10.31,73638.5,-9.05,-10.57,-10.57,0,*58
1486613062.2,48485,10.31,73640.0,-9.05,-10.67,-10.67,0,*59
1486613063.45,48486,10.31,73642.0,-9.05,-10.57,-10.67,0,*59
1486613064.72,48487,10.31,73640.0,-9.05,-10.67,-10.67,0,*5B
1486613065.97,48488,10.31,73640.0,-9.05,-10.57,-10.67,0,*57
1486613067.21,48489,10.31,73642.3,-9.05,-10.53,-10.67,0,*52
1486613068.42,48490,10.31,73644.3,-9.05,-10.53,-10.57,0,*59
1486613069.68,48491,10.31,73638.0,-9.07,-10.57,-10.71,0,*5A
1486613070.97,48492,10.31,73638.8,-9.07,-10.63,-10.63,0,*5D
1486613072.26,48493,10.31,73642.0,-9.07,-10.63,-10.63,0,*5C
1486613073.47,48494,10.31,73642.5,-9.05,-10.53,-10.57,0,*5D
1486613074.76,48495,10.31,73636.5,-9.07,-10.63,-10.71,0,*59
1486613076.05,48496,10.31,73642.0,-9.07,-10.63,-10.75,0,*5E
1486613077.31,48497,10.31,73638.8,-9.07,-10.71,-10.85,0,*53
1486613078.59,48498,10.31,73640.5,-9.07,-10.75,-10.75,0,*57
1486613079.88,48499,10.31,73638.8,-9.07,-10.75,-10.75,0,*56
1486613081.14,48500,10.31,73640.5,-9.07,-10.75,-10.85,0,*58
1486613082.43,48501,10.31,73638.3,-9.07,-10.71,-10.75,0,*52
1486613083.7,48502,10.31,73640.0,-9.09,-10.71,-10.75,0,*5F
1486613084.99,48503,10.31,73640.3,-9.07,-10.75,-10.75,0,*54
1486613086.28,48504,10.31,73638.0,-9.07,-10.71,-10.75,0,*57
1486613087.57,48505,10.31,73642.3,-9.07,-10.71,-10.75,0,*56
1486613088.84,48506,10.31,73638.5,-9.05,-10.67,-10.71,0,*54
1486613090.11,48507,10.31,73638.8,-9.07,-10.57,-10.63,0,*57
1486613091.35,48508,10.31,73640.5,-9.09,-10.49,-10.71,0,*5A
1486613092.61,48509,10.31,73636.8,-9.07,-10.57,-10.71,0,*5A
1486613093.9,48510,10.31,73636.3,-9.07,-10.71,-10.75,0,*52
1486613095.17,48511,10.31,73640.0,-9.09,-10.63,-10.75,0,*5E
1486613096.46,48512,10.31,73638.5,-9.07,-10.63,-10.75,0,*53
1486613097.75,48513,10.31,73642.3,-9.07,-10.63,-10.71,0,*56
1486613099.04,48514,10.31,73640.0,-9.07,-10.71,-10.71,0,*52
1486613100.33,48515,10.31,73640.0,-9.07,-10.71,-10.75,0,*57
1486613101.62,48516,10.31,73638.5,-9.07,-10.71,-10.75,0,*54
1486613102.89,48517,10.31,73642.3,-9.09,-10.63,-10.71,0,*5C
1486613104.18,48518,10.31,73640.3,-9.07,-10.63,-10.63,0,*5E
1486613105.45,48519,10.31,73644.5,-9.09,-10.63,-10.71,0,*52
1486613106.74,48520,10.31,73642.5,-9.07,-10.71,-10.71,0,*55
1486613108.01,48521,10.31,73642.3,-9.09,-10.63,-10.71,0,*59
1486613109.27,48522,10.31,73640.0,-9.07,-10.49,-10.71,0,*5C
1486613110.51,48523,10.31,73642.3,-9.09,-10.49,-10.71,0,*53
1486613111.76,48524,10.31,73640.0,-9.09,-10.57,-10.63,0,*58
1486613113.02,48525,10.31,73640.8,-9.07,-10.57,-10.71,0,*54
1486613114.3,48526,10.31,73644.5,-9.07,-10.63,-10.71,0,*50
1486613115.56,48527,10.31,73640.5,-9.07,-10.49,-10.71,0,*59
1486613116.82,48528,10.31,73642.3,-9.07,-10.57,-10.71,0,*59
1486613118.08,48529,10.31,73642.3,-9.07,-10.57,-10.71,0,*58
1486613119.34,48530,10.31,73644.5,-9.07,-10.49,-10.63,0,*5C
1486613120.61,48531,10.31,73640.0,-9.07,-10.57,-10.63,0,*52
1486613121.85,48532,10.31,73638.3,-9.09,-10.57,-10.71,0,*5C
1486613123.11,48533,10.31,73642.3,-9.07,-10.57,-10.71,0,*53
1486613124.4,48534,10.31,73638.5,-9.07,-10.63,-10.71,0,*53
1486613125.69,48535,10.31,73638.0,-9.07,-10.63,-10.71,0,*52
1486613126.95,48536,10.31,73640.3,-9.07,-10.57,-10.71,0,*56
1486613128.22,48537,10.31,73642.8,-9.09,-10.63,-10.71,0,*5E
1486613129.51,48538,10.31,73642.0,-9.07,-10.63,-10.71,0,*5F
1486613130.78,48539,10.31,73640.0,-9.09,-10.63,-10.75,0,*54
1486613132.07,48540,10.31,73642.3,-9.07,-10.63,-10.71,0,*50
1486613133.34,48541,10.25,73638.3,-9.09,-10.63,-10.71,0,*5F
1486613134.63,48542,10.31,73636.8,-9.07,-10.71,-10.71,0,*51
1486613135.89,48543,10.31,73638.3,-9.07,-10.49,-10.63,0,*58
1486613137.18,48544,10.31,73636.5,-9.07,-10.63,-10.71,0,*54
1486613138.45,48545,10.31,73640.8,-9.09,-10.63,-10.71,0,*5B
1486613139.72,48546,10.31,73642.0,-9.09,-10.63,-10.71,0,*58
1486613140.96,48547,10.31,73638.5,-9.09,-10.71,-10.85,0,*51
1486613142.25,48548,10.31,73636.3,-9.07,-10.71,-10.75,0,*5F
1486613143.49,48549,10.31,73636.0,-9.09,-10.71,-10.85,0,*5F
1486613144.76,48550,10.31,73638.8,-9.09,-10.75,-10.75,0,*5C
1486613146.03,48551,10.31,73642.8,-9.09,-10.71,-10.75,0,*59
1486613147.32,48552,10.31,73642.3,-9.07,-10.71,-10.75,0,*54
1486613148.6,48553,10.31,73640.5,-9.09,-10.71,-10.75,0,*5B
1486613149.87,48554,10.31,73640.8,-9.09,-10.71,-10.75,0,*5C
1486613151.15,48555,10.31,73638.8,-9.09,-10.63,-10.63,0,*59
1486613152.42,48556,10.31,73642.3,-9.09,-10.63,-10.71,0,*59
1486613153.67,48557,10.31,73642.3,-9.09,-10.57,-10.63,0,*5C
1486613154.93,48558,10.31,73640.3,-9.07,-10.49,-10.63,0,*52
1486613156.16,48559,10.31,73642.8,-9.07,-10.57,-10.57,0,*5B
1486613157.38,48560,10.31,73638.8,-9.09,-10.49,-10.57,0,*50
1486613158.6,48561,10.31,73638.3,-9.09,-10.49,-10.57,0,*51
1486613159.82,48562,10.31,73640.5,-9.09,-10.57,-10.57,0,*5D
1486613161.06,48563,10.31,73638.8,-9.09,-10.49,-10.63,0,*54
1486613162.31,48564,10.31,73640.0,-9.09,-10.49,-10.63,0,*53
1486613163.58,48565,10.31,73638.5,-9.09,-10.63,-10.63,0,*5A
1486613164.86,48566,10.31,73636.8,-9.09,-10.63,-10.63,0,*59
1486613166.1,48567,10.31,73636.8,-9.09,-10.57,-10.63,0,*5F
1486613167.35,48568,10.31,73634.3,-9.09,-10.57,-10.63,0,*50
1486613168.63,48569,10.31,73636.8,-9.09,-10.63,-10.63,0,*56
1486613169.87,48570,10.31,73638.0,-9.09,-10.57,-10.71,0,*5A
1486613171.14,48571,10.31,73632.5,-9.09,-10.71,-10.71,0,*5F
1486613172.42,48572,10.31,73632.3,-9.09,-10.71,-10.75,0,*58
1486613173.69,48573,10.31,73634.0,-9.09,-10.71,-10.75,0,*59
1486613174.96,48574,10.31,73636.0,-9.09,-10.71,-10.75,0,*5E
1486613176.23,48575,10.31,73636.5,-9.09,-10.63,-10.71,0,*58
1486613177.52,48576,10.31,73636.3,-9.07,-10.63,-10.71,0,*55
1486613178.79,48577,10.31,73636.3,-9.09,-10.71,-10.71,0,*59
1486613180.06,48578,10.31,73638.8,-9.09,-10.63,-10.71,0,*55
1486613181.33,48579,10.31,73638.5,-9.09,-10.71,-10.71,0,*57
1486613182.61,48580,10.31,73638.3,-9.09,-10.63,-10.71,0,*52
1486613183.9,48581,10.31,73636.0,-9.11,-10.75,-10.75,0,*59
1486613185.2,48582,10.31,73638.5,-9.11,-10.67,-10.75,0,*59
1486613186.5,48583,10.31,73636.0,-9.11,-10.63,-10.75,0,*5C
1486613187.8,48584,10.31,73642.3,-9.11,-10.67,-10.75,0,*5F
1486613189.1,48585,10.31,73636.5,-9.11,-10.67,-10.75,0,*5E
1486613190.4,48586,10.31,73638.5,-9.11,-10.63,-10.75,0,*59
1486613191.7,48587,10.31,73638.5,-9.11,-10.63,-10.75,0,*58
1486613193.0,48588,10.31,73638.8,-9.11,-10.67,-10.75,0,*53
1486613194.26,48589,10.25,73634.8,-9.11,-10.53,-10.75,0,*55
1486613195.57,48590,10.31,73636.3,-9.11,-10.67,-10.67,0,*59
1486613196.87,48591,10.25,73638.0,-9.11,-10.67,-10.75,0,*5B
1486613198.17,48592,10.31,73638.8,-9.11,-10.63,-10.67,0,*5F
1486613199.41,48593,10.31,73638.3,-9.09,-10.49,-10.63,0,*5B
1486613200.66,48594,10.31,73642.0,-9.09,-10.49,-10.63,0,*5C
1486613201.9,48595,10.31,73640.0,-9.09,-10.57,-10.71,0,*51
1486613203.15,48596,10.25,73636.3,-9.09,-10.49,-10.63,0,*5E
1486613204.41,48597,10.31,73640.8,-9.11,-10.53,-10.67,0,*59
1486613205.71,48598,10.31,73636.3,-9.11,-10.63,-10.63,0,*51
1486613206.95,48599,10.31,73638.0,-9.11,-10.53,-10.53,0,*50
1486613208.17,48600,10.25,73634.3,-9.09,-10.49,-10.57,0,*55
1486613209.38,48601,10.25,73638.0,-9.09,-10.49,-10.57,0,*54
1486613210.65,48602,10.31,73638.5,-9.11,-10.53,-10.63,0,*52
1486613211.89,48603,10.31,73638.5,-9.09,-10.49,-10.63,0,*51
1486613213.11,48604,10.25,73638.8,-9.09,-10.45,-10.57,0,*5D
1486613214.33,48605,10.31,73638.3,-9.09,-10.45,-10.57,0,*5C
1486613215.57,48606,10.31,73638.0,-9.09,-10.49,-10.63,0,*54
1486613216.87,48607,10.31,73638.0,-9.11,-10.63,-10.75,0,*53
1486613218.13,48608,10.31,73636.0,-9.07,-10.57,-10.63,0,*5B
1486613219.38,48609,10.25,73636.3,-9.09,-10.57,-10.63,0,*54
1486613220.6,48610,10.25,73634.3,-9.09,-10.49,-10.57,0,*54
1486613221.82,48611,10.31,73636.5,-9.09,-10.49,-10.57,0,*55
1486613223.03,48612,10.31,73636.8,-9.09,-10.49,-10.57,0,*56
1486613224.25,48613,10.31,73638.5,-9.09,-10.49,-10.49,0,*58
1486613225.51,48614,10.31,73640.5,-9.07,-10.49,-10.63,0,*59
1486613226.76,48615,10.31,73642.3,-9.09,-10.57,-10.63,0,*59
1486613228.0,48616,10.31,73634.8,-9.09,-10.49,-10.63,0,*55
1486613229.22,48617,10.31,73638.3,-9.09,-10.57,-10.57,0,*5C
1486613230.44,48618,10.31,73636.5,-9.09,-10.57,-10.57,0,*53
1486613231.68,48619,10.31,73638.5,-9.07,-10.49,-10.57,0,*53
1486613232.9,48620,10.31,73636.5,-9.09,-10.57,-10.57,0,*58
1486613234.12,48621,10.31,73638.0,-9.09,-10.49,-10.57,0,*56
1486613235.34,48622,10.31,73640.8,-9.09,-10.57,-10.57,0,*5A
1486613236.6,48623,10.31,73636.3,-9.07,-10.57,-10.71,0,*51
1486613237.84,48624,10.31,73636.5,-9.09,-10.57,-10.71,0,*58
1486613239.08,48625,10.31,73634.5,-9.09,-10.49,-10.71,0,*56
1486613240.33,48626,10.31,73638.0,-9.09,-10.49,-10.63,0,*56
1486613241.59,48627,10.31,73640.3,-9.07,-10.49,-10.63,0,*59
1486613242.81,48628,10.31,73634.5,-9.09,-10.57,-10.57,0,*50
1486613244.02,48629,10.31,73636.5,-9.09,-10.49,-10.49,0,*51
1486613245.26,48630,10.31,73640.3,-9.07,-10.45,-10.49,0,*5B
1486613246.48,48631,10.31,73636.8,-9.09,-10.35,-10.57,0,*5C
1486613247.7,48632,10.31,73636.5,-9.09,-10.49,-10.49,0,*5B
1486613248.93,48633,10.31,73638.5,-9.07,-10.45,-10.49,0,*58
1486613250.15,48634,10.31,73636.8,-9.09,-10.45,-10.45,0,*5D
1486613251.38,48635,10.25,73638.0,-9.09,-10.35,-10.57,0,*58
1486613252.6,48636,10.31,73640.3,-9.09,-10.35,-10.49,0,*54
1486613253.82,48637,10.31,73638.0,-9.09,-10.45,-10.57,0,*5D
1486613255.04,48638,10.31,73636.8,-9.09,-10.49,-10.57,0,*5E
1486613256.27,48639,10.31,73638.3,-9.07,-10.45,-10.49,0,*52
1486613257.5,48640,10.31,73636.0,-9.07,-10.49,-10.49,0,*50
1486613258.72,48641,10.31,73640.3,-9.09,-10.49,-10.57,0,*50
1486613259.96,48642,10.31,73640.3,-9.07,-10.49,-10.49,0,*52
1486613261.17,48643,10.31,73636.8,-9.09,-10.45,-10.49,0,*51
1486613262.39,48644,10.31,73638.8,-9.09,-10.49,-10.57,0,*55
1486613263.61,48645,10.31,73636.3,-9.09,-10.49,-10.57,0,*54
1486613264.84,48646,10.31,73640.8,-9.07,-10.49,-10.57,0,*59
1486613266.08,48647,10.31,73636.5,-9.07,-10.49,-10.49,0,*57
1486613267.3,48648,10.31,73642.3,-9.09,-10.49,-10.57,0,*59
1486613268.52,48649,10.31,73636.0,-9.09,-10.57,-10.57,0,*57
1486613269.78,48650,10.31,73640.0,-9.11,-10.53,-10.67,0,*51
1486613271.07,48651,10.31,73636.5,-9.07,-10.63,-10.63,0,*50
1486613272.34,48652,10.31,73638.3,-9.07,-10.49,-10.63,0,*5B
1486613273.56,48653,10.31,73640.8,-9.09,-10.57,-10.57,0,*5C
1486613274.77,48654,10.31,73638.3,-9.09,-10.49,-10.57,0,*54
1486613275.99,48655,10.31,73642.0,-9.09,-10.57,-10.57,0,*5A
1486613277.24,48656,10.31,73638.8,-9.09,-10.57,-10.63,0,*5E
1486613278.46,48657,10.31,73636.0,-9.09,-10.57,-10.57,0,*58
1486613279.71,48658,10.31,73638.0,-9.09,-10.49,-10.63,0,*5F
1486613280.97,48659,10.31,73640.0,-9.07,-10.57,-10.63,0,*5F
1486613282.19,48660,10.31,73638.0,-9.09,-10.57,-10.57,0,*5C
1486613283.41,48661,10.31,73636.8,-9.09,-10.49,-10.57,0,*52
1486613284.65,48662,10.31,73636.3,-9.09,-10.49,-10.63,0,*56
1486613285.87,48663,10.31,73636.5,-9.09,-10.49,-10.57,0,*50
1486613287.09,48664,10.31,73638.3,-9.09,-10.49,-10.57,0,*57
1486613288.33,48665,10.31,73636.3,-9.09,-10.49,-10.63,0,*51
1486613289.58,48666,10.31,73638.0,-9.09,-10.49,-10.63,0,*52
1486613290.82,48667,10.31,73636.8,-9.09,-10.57,-10.63,0,*5C
1486613292.07,48668,10.31,73636.3,-9.09,-10.49,-10.63,0,*5C
1486613293.3,48669,10.31,73640.0,-9.07,-10.49,-10.49,0,*5B
1486613294.52,48670,10.31,73636.5,-9.09,-10.49,-10.49,0,*5D
1486613295.74,48671,10.31,73638.5,-9.09,-10.49,-10.57,0,*53
1486613296.97,48672,10.31,73638.0,-9.07,-10.49,-10.57,0,*5E
1486613298.19,48673,10.25,73634.3,-9.09,-10.49,-10.57,0,*51
1486613299.46,48674,10.31,73636.8,-9.11,-10.53,-10.63,0,*53